Temperature
9 7 7 7 7 9 8 7 7 7 6 6 5 4 3 3 3 2 2 2 3 3 4 4 4 4 4 4 5 5 5 5 5 5 5 5 5 5 5 5 5 5 5 5
7 7 7 7 7 8 7 8 7 6 6 6 5 4 3 3 2 2 2 2 3 3 3 3 4 4 4 4 4 4 4 4 4 4 4 4 4 4 4 4 4 4 4 4
8 7 7 7 7 7 7 7 7 6 5 5 5 5 4 3 2 2 2 2 3 3 3 3 3 3 3 3 3 3 4 4 4 3 3 3 3 3 4 4 3 3 3 3
7 7 7 7 7 7 7 6 6 6 5 4 5 5 5 2 1 1 1 2 2 2 2 3 3 3 3 3 3 3 3 3 3 3 3 3 2 3 3 3 3 3 3 3
6 6 7 7 7 7 6 5 5 5 5 4 3 4 4 2 2 1 1 1 2 2 2 2 2 2 2 2 2 2 2 2 2 2 2 2 2 2 2 2 2 2 2 2
5 5 6 6 5 5 4 4 4 3 3 5 4 3 4 2 2 2 1 1 1 1 1 2 2 2 2 2 2 2 2 2 1 1 1 1 1 1 1 1 1 1 1 1
5 5 5 5 5 5 5 4 5 5 4 4 3 3 3 3 1 1 1 1 1 1 1 1 1 1 1 1 1 1 1 1 1 1 1 0 0 0 0 0 0 0 1 1
5 5 4 4 5 4 4 5 5 5 4 3 2 2 3 2 1 1 1 1 1 1 1 1 1 1 1 0 0 0 0 0 0 -0 -0 -0 -1 -1 -1 -1 -1 -0 -0 -0
4 5 4 4 4 4 4 3 3 2 2 2 2 1 1 1 0 0 0 0 0 1 1 1 0 0 -0 -0 -0 -0 -0 -0 -1 -1 -1 -1 -1 -1 -1 -1 -1 -1 -1 -1
4 4 3 3 4 3 3 2 1 2 3 3 3 2 2 2 1 -1 -1 -1 -0 0 0 0 0 -0 -0 -1 -1 -1 -1 -1 -1 -1 -2 -2 -2 -2 -2 -2 -2 -2 -2 -2
4 3 2 2 2 2 2 2 2 1 1 2 2 3 2 1 0 -1 -1 -1 -0 -0 -0 -0 -0 -1 -1 -1 -1 -1 -2 -2 -2 -2 -2 -2 -2 -2 -2 -2 -2 -2 -2 -2
2 1 1 2 2 2 2 2 1 2 1 -0 0 2 1 -0 -1 -1 -1 -1 -0 -0 -0 -1 -1 -1 -1 -2 -2 -2 -2 -2 -2 -2 -3 -3 -3 -3 -3 -3 -3 -3 -3 -3
2 2 2 3 2 1 1 1 1 0 -0 -2 -1 2 0 -1 -1 -1 -1 -1 -1 -1 -1 -1 -1 -2 -2 -2 -2 -2 -3 -3 -3 -3 -3 -3 -3 -3 -3 -3 -3 -3 -3 -3
2 1 2 3 3 1 0 0 -0 -0 -1 -1 -1 1 0 -1 -2 -2 -1 -1 -1 -1 -2 -2 -2 -2 -2 -3 -3 -3 -3 -3 -4 -4 -4 -4 -4 -4 -4 -4 -4 -4 -4 -4
2 1 1 1 1 0 1 1 -0 -0 -0 -0 -0 -0 0 -1 -2 -2 -2 -2 -2 -2 -2 -2 -3 -3 -3 -3 -3 -3 -4 -4 -4 -4 -4 -4 -5 -5 -5 -5 -5 -5 -5 -5
-0 0 -0 -0 0 -0 0 0 -0 -0 -0 -1 -1 -1 -1 -2 -2 -2 -2 -3 -3 -3 -3 -3 -3 -3 -3 -4 -4 -4 -4 -4 -5 -5 -5 -5 -5 -5 -5 -5 -5 -5 -5 -5
-1 -1 -1 -1 -1 -0 -1 -1 -1 -1 -2 -1 -1 -1 -3 -3 -3 -3 -3 -3 -3 -3 -3 -3 -4 -4 -4 -4 -4 -5 -5 -5 -5 -5 -6 -6 -6 -6 -6 -6 -6 -6 -6 -6
-2 -2 -2 -2 -2 -1 1 -1 -1 -1 -2 -3 -2 -3 -3 -3 -3 -3 -2 -2 -3 -3 -4 -4 -4 -4 -4 -5 -5 -5 -5 -5 -6 -6 -6 -6 -6 -6 -6 -6 -6 -6 -6 -6
-2 -2 -3 -3 -2 -2 -1 -2 -2 -2 -2 -3 -3 -4 -4 -4 -4 -3 -3 -3 -3 -4 -4 -4 -4 -5 -5 -5 -5 -6 -6 -6 -6 -6 -7 -7 -7 -7 -7 -7 -7 -7 -7 -7
-3 -3 -3 -4 -2 -1 -0 -2 -3 -2 -2 -3 -4 -4 -5 -5 -5 -4 -3 -4 -4 -4 -4 -5 -5 -5 -5 -6 -6 -6 -6 -6 -7 -7 -7 -7 -7 -7 -7 -7 -7 -7 -8 -7
-3 -4 -3 -4 -3 -2 -2 -3 -3 -2 -2 -3 -4 -4 -5 -5 -5 -4 -4 -4 -5 -5 -5 -5 -5 -6 -6 -6 -7 -7 -7 -7 -7 -7 -8 -8 -8 -8 -8 -8 -8 -8 -8 -8
-3 -3 -4 -4 -4 -2 -4 -4 -3 -3 -3 -3 -4 -4 -4 -5 -5 -5 -5 -5 -5 -5 -6 -6 -6 -6 -7 -7 -7 -7 -7 -8 -8 -8 -8 -8 -8 -8 -8 -8 -8 -8 -8 -8
-4 -3 -3 -3 -2 -3 -4 -3 -3 -3 -3 -3 -4 -4 -4 -5 -5 -5 -5 -6 -6 -6 -6 -6 -7 -7 -7 -7 -8 -8 -8 -8 -8 -8 -8 -8 -8 -8 -8 -8 -8 -8 -9 -9
-5 -5 -5 -5 -5 -5 -4 -4 -3 -3 -3 -4 -4 -4 -5 -5 -6 -6 -6 -6 -6 -7 -7 -7 -7 -7 -7 -8 -8 -8 -9 -9 -9 -9 -9 -9 -9 -9 -9 -9 -9 -9 -9 -9
-5 -6 -6 -6 -6 -5 -5 -4 -4 -4 -4 -4 -4 -5 -5 -5 -6 -6 -6 -7 -7 -7 -7 -8 -8 -8 -8 -8 -9 -9 -9 -9 -9 -9 -9 -9 -9 -9 -9 -9 -9 -9 -9 -10
-6 -6 -5 -4 -5 -5 -5 -4 -4 -4 -5 -5 -5 -5 -6 -6 -6 -7 -7 -7 -7 -8 -8 -8 -8 -8 -9 -9 -9 -9 -9 -10 -10 -10 -10 -10 -10 -10 -10 -10 -9 -10 -10 -10
Wind_Speed
4 4 3 6 5 2 5 4 3 3 0 2 5 6 5 4 4 5 4 4 3 2 1 1 2 3 4 5 5 5 6 6 5 4 3 3 4 4 5 8 9 9 9 7
4 1 3 2 2 3 3 3 3 2 1 1 4 7 5 5 5 6 7 6 4 2 0 1 2 3 3 4 5 5 5 5 5 3 2 1 2 2 3 6 8 10 9 8
5 2 1 3 3 3 2 4 4 3 2 2 3 7 4 3 3 3 4 4 4 5 4 2 0 1 2 3 3 4 4 5 5 5 3 3 3 3 3 5 5 8 9 9
1 1 1 2 2 3 4 2 3 3 1 3 0 5 5 3 3 5 5 5 5 4 3 2 1 0 1 2 2 3 4 4 5 5 4 4 4 3 4 4 5 8 9 9
2 0 1 2 2 2 2 1 2 1 3 2 2 4 7 1 4 7 7 6 5 5 4 3 2 1 1 1 2 2 3 4 4 4 4 4 3 3 4 5 6 6 7 8
0 1 0 2 2 2 3 4 4 4 3 4 5 6 7 4 5 4 6 7 6 5 4 3 1 1 1 1 2 2 2 3 3 3 3 3 3 4 5 6 6 6 5 6
1 1 1 2 3 3 3 4 3 4 2 6 2 5 8 4 3 4 5 7 6 5 4 3 2 1 1 1 1 2 2 3 3 3 3 3 3 3 4 5 5 6 5 5
3 4 2 1 3 4 3 4 5 5 5 5 2 7 6 2 1 1 3 4 4 4 3 3 3 2 2 2 2 2 2 3 3 3 3 3 3 3 3 4 5 5 5 6
5 4 2 1 1 5 4 2 3 4 1 4 6 6 6 1 0 0 2 3 4 3 3 3 2 2 2 2 2 2 2 3 3 3 3 3 3 3 4 5 5 5 5 6
5 2 1 1 2 3 3 6 4 3 3 6 6 6 5 5 4 2 2 3 3 3 2 2 2 2 2 3 3 3 3 3 3 3 3 4 4 4 4 5 6 6 6 7
2 3 1 1 4 5 3 3 3 3 3 4 5 7 4 5 4 5 5 4 4 4 3 3 3 3 2 2 2 3 3 3 4 4 4 4 5 5 5 5 6 6 7 7
3 4 2 5 2 1 4 5 6 4 5 4 4 8 2 3 2 3 4 4 3 3 3 3 2 2 2 2 3 3 3 4 4 4 4 5 5 5 5 6 6 7 7 7
4 4 1 3 1 0 2 4 4 4 3 5 5 8 2 1 1 1 3 3 3 2 2 2 2 2 3 3 3 4 4 5 5 4 4 5 5 6 6 7 7 7 7 7
3 4 6 8 5 4 4 5 6 5 5 6 9 10 7 5 4 4 3 3 3 3 2 2 2 3 3 4 4 4 5 5 5 4 5 5 6 6 7 7 7 7 7 7
3 4 5 5 3 3 6 7 8 9 9 9 9 9 10 6 5 5 4 3 2 3 3 3 3 3 4 5 5 4 5 5 4 4 5 6 6 6 7 7 7 7 7 7
2 3 1 3 2 3 6 8 10 10 8 9 10 12 6 3 2 2 3 3 3 4 4 4 4 4 5 5 5 5 5 5 4 4 6 6 7 7 7 7 7 7 7 7
3 4 2 3 3 4 8 8 9 6 6 7 11 9 1 2 3 4 4 4 4 5 4 4 4 5 6 5 5 5 5 5 4 5 6 6 6 7 8 8 7 7 7 7
6 5 3 1 1 7 6 1 5 6 6 6 5 4 3 4 3 3 3 3 3 3 3 4 4 5 5 4 4 4 4 4 5 5 6 6 7 8 8 7 7 7 7 7
4 6 4 3 4 8 7 2 3 4 6 5 6 5 1 1 2 2 1 1 2 3 3 3 3 4 4 4 4 4 4 4 5 6 6 7 7 8 8 8 8 7 7 7
3 4 4 4 4 7 5 1 1 2 5 3 4 4 2 2 1 4 1 1 2 2 2 2 3 3 4 4 4 4 5 5 6 6 7 7 7 7 8 8 8 7 7 7
3 3 5 5 6 8 4 1 3 3 5 1 2 2 3 3 4 3 2 2 2 2 3 2 2 3 4 4 3 4 5 5 6 7 7 7 7 7 7 7 6 7 7 7
7 6 6 5 5 9 2 4 5 5 0 0 1 1 2 2 1 2 2 2 3 3 3 3 3 4 4 4 3 4 6 6 6 6 7 7 7 7 7 6 7 6 6 7
7 7 6 8 7 1 3 3 2 1 1 1 1 1 1 1 2 3 3 3 3 3 3 3 3 4 4 4 3 5 6 6 6 7 7 7 8 7 7 6 6 6 5 5
4 1 3 4 5 3 2 2 1 0 1 1 1 2 1 2 3 3 3 3 3 3 3 3 3 4 5 4 4 5 6 6 6 7 7 7 7 7 6 6 5 5 5 6
4 4 3 4 4 2 2 2 1 0 1 1 0 0 1 2 2 3 3 3 3 3 3 3 3 4 6 5 5 6 6 5 6 7 7 7 7 7 6 6 5 6 5 6
3 5 5 5 4 4 4 2 1 1 1 1 0 1 1 1 2 2 3 3 3 3 3 4 4 5 5 5 6 6 6 5 6 6 6 6 6 6 6 6 7 9 9 12
Wind_Direction
34 76 176 207 196 179 160 167 215 246 225 188 237 255 248 206 190 191 192 190 187 197 228 27 20 21 25 21 19 15 14 6 12 5 3 359 347 344 355 357 357 356 353 346
55 258 236 172 148 124 142 178 231 283 4 225 273 271 249 205 205 202 197 197 198 198 275 354 11 23 22 16 9 10 8 5 9 1 344 333 323 328 339 346 352 354 353 348
171 223 176 131 129 143 188 193 214 223 351 20 328 293 233 218 203 201 197 194 195 194 200 218 331 7 11 6 359 4 4 6 8 10 7 3 359 344 352 346 346 347 348 348
162 293 118 125 170 158 236 220 178 176 171 276 241 283 263 211 221 216 211 203 205 202 194 196 197 309 335 330 348 360 4 9 11 20 24 21 8 347 329 326 326 335 340 342
206 159 126 178 208 169 184 67 109 151 165 281 239 225 278 166 240 232 217 210 206 199 191 193 201 223 288 334 350 351 5 12 13 21 22 22 5 339 326 330 331 333 336 337
125 335 113 157 59 106 126 68 58 58 84 261 220 196 269 223 225 232 211 205 200 195 189 191 203 209 321 350 359 359 4 2 7 14 11 13 356 342 338 335 335 332 330 331
339 320 13 93 85 44 76 85 21 340 316 250 187 215 251 239 224 214 203 197 192 186 180 188 206 249 285 308 328 343 352 347 350 359 356 346 335 330 324 320 323 324 325 322
187 261 231 176 159 167 185 150 173 222 242 278 263 238 256 246 268 229 191 175 170 177 187 199 213 225 245 267 294 314 330 329 332 340 336 330 324 323 316 312 310 310 310 307
184 230 17 40 40 136 139 184 156 138 219 273 264 277 297 192 295 159 156 153 176 193 201 213 230 236 248 270 281 286 302 312 314 317 319 319 321 320 314 312 312 308 306 310
158 204 276 327 68 34 135 140 109 143 210 261 280 270 254 244 244 229 201 195 206 206 216 225 232 244 259 270 287 297 293 295 299 306 307 315 312 309 306 308 309 308 307 309
126 154 300 352 201 189 135 150 149 151 180 200 267 268 231 214 215 214 220 214 211 217 228 236 248 258 263 283 298 303 300 303 304 302 301 304 303 304 304 303 302 304 305 308
132 127 226 243 253 206 187 184 157 176 232 212 238 270 294 214 231 204 216 224 225 228 235 238 247 267 274 285 300 302 301 301 298 297 298 298 300 302 304 303 301 303 303 304
141 129 61 333 329 338 228 207 187 147 144 189 210 264 326 355 310 228 223 236 242 241 244 253 268 272 277 286 296 301 302 299 298 297 297 298 300 302 303 302 302 303 302 304
121 162 194 215 235 195 227 222 189 168 198 227 232 256 283 292 287 281 261 249 247 245 246 255 274 282 287 287 286 294 299 301 303 304 302 298 297 298 300 301 301 301 302 302
130 206 232 256 269 232 232 230 204 207 211 221 245 250 264 255 246 246 246 250 250 259 266 265 274 286 294 294 293 293 296 301 304 304 303 301 302 302 303 305 304 303 303 304
128 185 194 277 279 274 266 246 223 227 231 240 261 269 263 261 235 250 250 237 243 261 269 275 284 290 289 288 291 294 297 302 305 301 300 304 307 309 308 308 307 307 306 305
161 150 165 260 319 328 271 233 209 213 216 210 237 251 245 265 254 248 244 239 250 260 269 273 278 279 281 284 288 288 293 302 304 302 304 307 309 311 310 311 311 307 305 305
155 152 165 215 39 247 251 191 195 217 239 218 235 260 241 245 274 275 230 215 249 272 282 288 285 287 292 294 297 297 305 305 304 305 307 310 311 310 310 310 310 308 305 304
159 152 152 169 238 274 290 260 179 203 262 221 230 252 277 44 1 313 246 203 243 268 281 281 282 290 302 302 303 309 311 310 309 308 310 311 311 309 310 311 308 308 306 304
96 129 152 163 208 246 253 245 227 114 280 241 203 222 179 100 291 274 314 328 308 310 306 303 315 325 316 312 317 314 310 314 309 308 308 308 307 305 304 303 304 305 305 303
150 156 186 192 227 262 256 226 118 166 260 294 177 185 170 201 228 269 318 325 320 321 324 332 332 323 313 318 324 314 312 308 308 311 309 308 307 303 298 299 302 305 307 309
181 181 194 177 214 252 194 143 184 217 347 95 163 179 194 234 286 309 315 314 322 328 331 332 327 321 324 328 325 313 309 308 313 312 309 308 308 306 308 305 305 307 308 309
201 195 191 197 217 271 169 196 226 156 183 221 196 223 184 242 272 290 297 296 300 306 314 319 315 317 323 324 318 305 306 313 315 313 310 308 308 308 310 307 305 306 305 304
241 187 179 239 261 253 251 271 307 246 227 242 213 212 215 249 265 279 285 294 297 301 308 316 319 316 314 315 312 301 306 313 313 310 309 309 310 310 312 310 307 304 302 301
210 171 189 245 275 317 289 238 223 195 72 65 6 254 219 224 267 271 279 287 292 304 309 310 307 303 303 311 311 312 313 315 312 308 308 310 310 307 309 308 300 300 289 296
189 180 188 229 217 205 245 256 208 174 260 263 308 327 315 260 263 282 286 291 295 301 309 312 309 306 307 311 310 313 314 314 310 311 313 312 310 309 310 310 311 310 311 312
Height
1515 1520 1524 1523 1523 1523 1526 1529 1530 1530 1530 1532 1532 1531 1530 1530 1530 1530 1531 1531 1532 1533 1534 1535 1535 1535 1535 1534 1534 1533 1532 1532 1531 1530 1529 1528 1527 1526 1525 1524 1523 1522 1520 1519
1520 1522 1520 1521 1522 1523 1525 1528 1530 1531 1530 1531 1532 1530 1527 1527 1527 1527 1528 1529 1530 1531 1532 1533 1533 1533 1533 1533 1532 1532 1531 1530 1529 1528 1527 1526 1525 1523 1523 1522 1520 1519 1517 1516
1519 1521 1519 1520 1523 1524 1525 1527 1528 1530 1532 1532 1532 1527 1525 1524 1525 1525 1526 1527 1528 1529 1530 1530 1531 1531 1531 1531 1531 1530 1529 1528 1527 1526 1525 1524 1523 1521 1520 1519 1517 1516 1515 1513
1520 1520 1519 1520 1522 1523 1525 1525 1527 1529 1533 1535 1534 1534 1520 1522 1523 1523 1523 1524 1525 1527 1528 1528 1529 1529 1529 1529 1529 1528 1527 1526 1525 1524 1523 1521 1520 1518 1517 1516 1514 1513 1512 1510
1520 1520 1520 1521 1522 1522 1525 1526 1528 1529 1532 1536 1536 1537 1522 1522 1521 1520 1520 1521 1522 1524 1525 1526 1527 1527 1528 1528 1527 1526 1525 1524 1523 1522 1521 1519 1518 1516 1515 1513 1511 1510 1508 1507
1521 1520 1520 1521 1522 1523 1525 1528 1531 1534 1536 1535 1531 1535 1521 1520 1515 1514 1515 1517 1518 1521 1523 1524 1525 1525 1526 1525 1525 1524 1523 1522 1521 1519 1518 1517 1515 1514 1512 1510 1508 1506 1505 1504
1522 1521 1521 1521 1523 1525 1525 1531 1536 1535 1538 1531 1530 1529 1519 1512 1512 1511 1512 1513 1515 1518 1520 1521 1522 1522 1523 1523 1522 1521 1520 1519 1518 1517 1515 1514 1512 1511 1509 1507 1505 1503 1501 1500
1523 1524 1522 1521 1522 1525 1527 1527 1534 1535 1536 1533 1532 1530 1515 1511 1510 1510 1510 1512 1514 1516 1517 1519 1520 1520 1520 1520 1520 1519 1517 1516 1515 1514 1512 1511 1509 1508 1506 1504 1502 1500 1498 1496
1522 1522 1522 1521 1521 1522 1527 1530 1530 1538 1541 1539 1531 1525 1515 1511 1510 1510 1510 1510 1512 1514 1515 1516 1517 1518 1518 1517 1517 1516 1514 1513 1512 1510 1509 1508 1506 1504 1503 1501 1499 1497 1495 1492
1517 1523 1523 1523 1522 1524 1524 1528 1536 1537 1536 1534 1526 1524 1516 1509 1509 1510 1510 1509 1511 1512 1513 1514 1515 1515 1515 1514 1514 1513 1512 1510 1509 1507 1506 1504 1503 1501 1499 1497 1495 1493 1491 1488
1516 1523 1527 1525 1524 1524 1527 1529 1530 1536 1537 1537 1533 1519 1507 1506 1506 1507 1508 1508 1509 1510 1511 1511 1512 1512 1512 1511 1510 1509 1508 1506 1505 1503 1502 1500 1498 1497 1494 1492 1490 1488 1486 1484
1516 1523 1528 1525 1523 1522 1523 1524 1529 1533 1534 1538 1535 1519 1505 1505 1504 1505 1506 1507 1507 1508 1509 1509 1509 1509 1509 1508 1507 1505 1504 1502 1501 1499 1498 1496 1494 1492 1490 1488 1486 1484 1482 1479
1515 1521 1525 1522 1525 1525 1524 1523 1524 1528 1533 1539 1537 1517 1506 1504 1503 1504 1505 1505 1506 1506 1506 1507 1506 1506 1505 1504 1503 1502 1500 1499 1497 1495 1494 1492 1490 1488 1485 1483 1481 1479 1477 1475
1510 1517 1518 1515 1512 1517 1521 1520 1522 1525 1530 1531 1523 1510 1506 1505 1504 1503 1503 1503 1504 1504 1504 1504 1503 1503 1502 1501 1500 1498 1497 1495 1493 1491 1489 1487 1486 1483 1481 1479 1477 1474 1472 1470
1509 1515 1515 1513 1513 1515 1513 1513 1516 1518 1516 1517 1510 1508 1501 1502 1502 1501 1501 1501 1501 1501 1501 1501 1500 1499 1499 1498 1496 1494 1493 1491 1489 1487 1485 1483 1481 1479 1476 1474 1472 1470 1467 1465
1510 1513 1515 1515 1513 1514 1511 1508 1510 1510 1510 1510 1507 1503 1498 1499 1499 1499 1498 1498 1498 1498 1498 1498 1498 1497 1495 1494 1492 1491 1489 1487 1485 1483 1481 1479 1477 1475 1472 1470 1467 1465 1462 1460
1511 1514 1516 1516 1516 1512 1510 1503 1503 1504 1503 1503 1502 1497 1497 1497 1497 1496 1496 1496 1496 1496 1496 1495 1495 1494 1493 1491 1489 1487 1485 1483 1482 1479 1477 1475 1473 1470 1468 1466 1463 1460 1458 1455
1510 1513 1517 1520 1518 1515 1497 1497 1496 1498 1497 1498 1496 1495 1495 1495 1495 1494 1494 1494 1494 1494 1494 1493 1492 1491 1490 1488 1486 1484 1482 1480 1478 1476 1474 1471 1469 1466 1464 1461 1458 1456 1453 1451
1505 1510 1517 1520 1519 1508 1499 1495 1496 1498 1496 1494 1494 1493 1494 1493 1493 1493 1493 1493 1493 1492 1492 1491 1490 1488 1486 1484 1482 1480 1478 1476 1474 1472 1470 1467 1465 1462 1459 1457 1454 1452 1449 1446
1507 1508 1514 1519 1516 1507 1494 1494 1492 1495 1496 1490 1490 1491 1492 1493 1495 1492 1491 1490 1490 1490 1489 1488 1486 1485 1483 1481 1479 1477 1475 1473 1471 1468 1466 1464 1461 1458 1456 1453 1450 1448 1445 1442
1507 1511 1512 1514 1513 1501 1494 1492 1493 1499 1492 1489 1488 1488 1490 1491 1491 1490 1489 1488 1488 1487 1486 1485 1484 1482 1480 1478 1476 1474 1472 1469 1467 1465 1462 1460 1457 1455 1452 1449 1447 1444 1442 1439
1500 1505 1509 1511 1512 1500 1491 1491 1492 1490 1487 1487 1487 1487 1488 1488 1487 1487 1487 1486 1485 1484 1483 1482 1481 1479 1478 1476 1474 1471 1468 1466 1464 1461 1459 1456 1454 1451 1448 1446 1443 1441 1438 1435
1495 1494 1495 1496 1493 1489 1488 1487 1487 1486 1486 1486 1486 1486 1486 1485 1485 1485 1484 1484 1483 1482 1481 1479 1478 1476 1475 1473 1471 1468 1466 1463 1461 1458 1455 1453 1450 1448 1445 1442 1440 1437 1435 1432
1492 1490 1492 1492 1488 1486 1486 1485 1485 1485 1485 1485 1484 1484 1484 1483 1483 1482 1482 1481 1480 1479 1478 1477 1475 1473 1471 1470 1468 1465 1462 1460 1457 1455 1452 1449 1446 1444 1442 1439 1437 1434 1431 1429
1486 1489 1489 1489 1486 1485 1484 1484 1484 1484 1484 1483 1483 1482 1482 1481 1480 1480 1479 1478 1478 1476 1475 1474 1472 1470 1468 1466 1464 1462 1459 1457 1454 1451 1449 1446 1443 1441 1438 1436 1434 1431 1429 1426
1483 1484 1486 1483 1482 1483 1482 1482 1482 1482 1481 1481 1480 1480 1480 1479 1478 1478 1477 1476 1475 1474 1472 1471 1469 1467 1465 1463 1461 1459 1456 1454 1451 1448 1446 1443 1440 1438 1435 1432 1430 1428 1426 1423